Omak, WA

5:12 AM PDT on August 17, 2017 (GMT -0700)
Omak

Weather History for KOMK - June, 2012

Change the Weather History Date:

Saturday, June 9, 2012

  Actual Average Record
Temperature  
Mean Temperature 54 °F 64 °F  
Max Temperature 64 °F 78 °F 96 °F (2015)
Min Temperature 43 °F 50 °F 36 °F (1999)
Degree Days  
Heating Degree Days 11 3  
Month to date heating degree days 86 31  
Since 1 June heating degree days 86 31  
Since 1 July heating degree days 6651 6304  
Cooling Degree Days 0 2  
Month to date cooling degree days 2 17  
Year to date cooling degree days 6 40  
Since 1 June cooling degree days 2 17  
Growing Degree Days 4 (Base 50)    
Moisture  
Dew Point 45 °F    
Average Humidity 72    
Maximum Humidity 93    
Minimum Humidity 51    
Precipitation  
Precipitation 0.02 in 0.03 in 0.89 in (1972)
Month to date precipitation 1.13 0.32  
Year to date precipitation 6.92 7.07  
Sea Level Pressure  
Sea Level Pressure 29.88 in    
Wind  
Wind Speed 3 mph (WNW)    
Max Wind Speed 10 mph    
Max Gust Speed 22 mph    
Visibility 10 miles    
Events Rain    
T = Trace of Precipitation, MM = Missing Value Source: NWS Daily Summary

Daily Weather History Graph

Daily Weather History Graph

Search for Another Location

Airport or City:

Trip Planner

Search our weather history database for the weather conditions in past years. The results will help you decide how hot, cold, wet, or windy it might be!

Date:

Astronomy

Jun. 09, 2012 Rise Set
Actual Time 4:56 AM PDT 8:58 PM PDT
Civil Twilight 4:15 AM PDT 9:40 PM PDT
Nautical Twilight 3:17 AM PDT 10:38 PM PDT
Astronomical Twilight 1:37 AM PDT 12:19 AM PDT
Moon 12:03 AM PDT (6/9) 11:11 AM PDT (6/9)
Length of Visible Light 17h 24m
Length of Day
16h 01m
Waning Gibbous, 67% of the Moon is Illuminated
Jun 9
Waning Gibbous
Jun 11
Last Quarter
Jun 19
New
Jun 26
First Quarter
Jul 3
Full

Hourly Weather History & Observations

Time (PDT) Temp. Windchill Dew Point Humidity Pressure Visibility Wind Dir Wind Speed Gust Speed Precip Events Conditions
12:53 AM 48.0 °F - 44.1 °F 86% 29.88 in 10.0 mi Calm Calm - N/A   Overcast
1:53 AM 45.0 °F 42.6 °F 43.0 °F 93% 29.88 in 10.0 mi WNW 4.6 mph - N/A   Overcast
2:53 AM 46.0 °F 43.9 °F 43.0 °F 89% 29.88 in 10.0 mi WNW 4.6 mph - N/A   Overcast
3:53 AM 46.9 °F - 45.0 °F 93% 29.87 in 10.0 mi SSE 3.5 mph - 0.01 in Rain Light Rain
4:53 AM 44.1 °F - 43.0 °F 96% 29.89 in 10.0 mi Calm Calm - 0.00 in   Scattered Clouds
5:53 AM 46.0 °F 43.9 °F 44.1 °F 93% 29.89 in 10.0 mi West 4.6 mph - 0.00 in Rain Light Rain
6:53 AM 48.0 °F - 45.0 °F 89% 29.88 in 10.0 mi Calm Calm - 0.00 in   Overcast
7:53 AM 48.0 °F - 46.0 °F 93% 29.88 in 10.0 mi SSW 3.5 mph - 0.01 in   Mostly Cloudy
8:53 AM 50.0 °F - 46.0 °F 86% 29.86 in 10.0 mi South 6.9 mph - N/A   Mostly Cloudy
9:53 AM 53.1 °F - 45.0 °F 74% 29.86 in 10.0 mi SSE 9.2 mph - N/A   Mostly Cloudy
10:53 AM 55.0 °F - 45.0 °F 69% 29.85 in 10.0 mi SSE 3.5 mph - N/A   Overcast
11:53 AM 57.0 °F - 44.1 °F 62% 29.85 in 10.0 mi Variable 4.6 mph - N/A   Mostly Cloudy
12:53 PM 59.0 °F - 43.0 °F 55% 29.84 in 10.0 mi Calm Calm - N/A   Mostly Cloudy
1:53 PM 61.0 °F - 43.0 °F 52% 29.85 in 10.0 mi Calm Calm - N/A   Overcast
2:53 PM 61.0 °F - 44.1 °F 54% 29.86 in 10.0 mi Calm Calm - N/A   Mostly Cloudy
3:53 PM 61.0 °F - 45.0 °F 56% 29.87 in 10.0 mi Calm Calm - N/A   Overcast
4:53 PM 63.0 °F - 46.0 °F 54% 29.88 in 10.0 mi North 5.8 mph - N/A   Overcast
5:53 PM 62.1 °F - 46.0 °F 56% 29.88 in 10.0 mi NW 3.5 mph - N/A   Mostly Cloudy
6:53 PM 62.1 °F - 45.0 °F 53% 29.88 in 10.0 mi North 5.8 mph - N/A   Mostly Cloudy
7:53 PM 61.0 °F - 46.9 °F 60% 29.89 in 10.0 mi NNW 3.5 mph - N/A   Clear
8:53 PM 55.0 °F - 46.0 °F 72% 29.91 in 10.0 mi WNW 6.9 mph - N/A   Partly Cloudy
9:53 PM 55.0 °F - 44.1 °F 67% 29.93 in 10.0 mi North 3.5 mph - N/A   Clear
10:53 PM 48.0 °F - 44.1 °F 86% 29.95 in 10.0 mi WNW 3.5 mph - N/A   Clear
11:53 PM 45.0 °F - 43.0 °F 93% 29.96 in 10.0 mi Calm Calm - N/A   Partly Cloudy